Vertical_Velocity
-1 -1 -1 -2 -1 0 1 -0 -1 -1 0 1 -1 -1 -2 -3 0 3 -2 4 -1 -2 2 2 1 3 0 -2 -0 1 0 3 1 -3 2 1 -0 2 1 -0 -1 -2 -2
-2 -1 -1 -2 -2 -4 -0 -1 -2 -2 -1 -2 -2 1 -0 12 2 3 -1 1 3 8 -2 1 -0 -1 -1 -2 0 -0 0 1 2 -1 -0 0 1 -2 4 5 -2 -0 1
-2 -2 1 0 0 -2 1 1 0 -1 -2 -1 -2 -2 -2 1 1 1 -1 -0 -1 -0 1 1 1 0 2 1 1 1 2 2 2 1 -5 -1 1 -2 0 1 1 -0 -1
-2 -1 0 1 2 0 -2 0 0 0 0 -3 -4 -4 -2 -2 -1 1 1 -1 -1 -1 -0 -0 0 0 0 -0 -0 0 1 2 1 2 -1 -1 0 1 0 3 7 1 -1
-2 -1 -2 0 3 2 -1 -2 -0 2 1 2 -1 1 -0 -1 -4 -2 1 -1 -1 -1 -0 -3 -3 -0 1 1 0 2 0 1 2 3 4 2 -0 -1 -0 -3 3 5 0
-3 -0 -2 1 0 1 1 -0 1 -0 1 2 -0 0 2 3 2 -1 -4 -1 1 -1 -3 -0 5 4 -1 -3 -2 -1 -0 1 1 0 1 4 1 1 -0 -1 -0 2 -1
-1 -1 -0 -3 -1 0 1 1 1 -1 -2 -0 0 0 0 1 1 -1 1 1 -2 -0 -2 -0 -0 -2 0 2 0 -1 -1 -1 -2 1 1 2 1 1 -11 -2 0 1 1
2 -1 1 -1 -3 -2 -1 0 -0 -0 -0 -0 -2 -2 -0 1 0 -1 1 2 2 1 0 1 -1 -3 -4 -1 3 3 -0 -2 -2 -2 -1 0 2 3 14 6 2 1 -0
5 -1 -2 -0 -2 -1 -2 1 -1 1 -1 -1 0 1 -1 1 2 1 -0 -1 0 1 2 -2 1 -0 -1 -2 -2 -1 3 3 -1 -2 1 -1 0 2 -7 -2 6 -1 6
6 1 -5 -3 -2 -2 -2 -3 1 1 1 0 -1 1 -1 -1 3 2 4 2 2 1 -3 -2 2 -4 -4 -1 -2 -2 -3 3 -1 -1 -2 1 -1 2 5 2 1 11 3
19 -1 -0 -3 -4 -3 0 -2 -0 1 2 1 -0 -1 -0 -1 0 1 0 0 -2 -1 0 -1 2 2 1 -2 -2 -2 -3 0 1 -2 -1 -1 -0 1 2 2 -2 -3 -1
2 4 -0 -2 -1 -0 0 -4 -3 -2 -0 1 1 1 -1 -1 -1 -0 0 -1 2 -0 1 4 1 -1 -0 -0 0 3 -1 -3 0 -3 -2 -2 -1 -0 -1 1 3 1 -2
0 2 -6 -2 -3 -2 -2 -5 -3 -1 -2 1 -1 -0 0 -1 -1 -1 -2 -1 -2 -3 -1 2 -0 2 -1 -0 0 -1 1 0 -0 -1 -3 -2 1 -2 0 1 4 1 0
20 12 -12 -2 1 2 2 -3 -1 -3 -4 -2 -1 -0 -1 -0 2 2 2 0 2 3 1 -1 0 -1 -1 1 1 -1 1 -2 -1 2 -0 -2 -0 -0 0 -0 0 4 1
6 3 -6 4 -2 -3 -2 3 -0 -3 -3 -6 -6 -3 -1 -1 -1 0 0 -0 1 0 0 3 2 2 -2 -1 -1 2 3 -0 2 -2 -0 4 1 4 1 1 -1 1 2
4 53 -18 49 17 2 4 7 2 -0 3 1 -1 -1 -2 -3 -1 0 -0 1 1 1 1 2 1 -3 -3 -1 2 1 -0 1 -0 1 6 6 3 0 1 0 1 -1 1
22 1 8 -5 19 6 -2 3 0 -2 0 2 -3 -4 -2 -0 -1 -3 -2 -2 -4 -3 -0 0 3 3 1 -3 -5 0 1 1 1 -3 -0 6 1 -2 -1 -1 1 2 4
-9 -8 -11 -18 -15 -12 1 -1 -2 -4 -2 -2 -1 -1 0 -1 -1 -1 -1 1 3 1 -3 -5 -1 -7 0 3 -1 4 -1 -1 0 3 2 -0 2 -0 -3 21 23 2 4
3 -10 0 -1 -4 -9 4 -11 3 -1 -2 -1 0 -2 -0 -2 -1 0 1 2 1 2 4 4 3 -0 -0 -1 0 -0 1 0 1 4 3 0 -0 0 -3 -1 1 -4 3
1 12 -5 -0 2 -6 4 -4 3 -2 0 1 -0 -2 -2 -3 -2 0 -1 -1 1 -1 1 -3 -0 7 1 -1 1 -0 -3 2 3 0 1 1 -2 -2 -1 1 -0 2 -0
4 1 12 8 -11 3 -2 2 2 2 -1 -2 -4 -2 -2 -2 -5 -6 2 2 -1 -2 5 -1 -4 -4 9 0 4 2 -1 -3 -3 0 2 2 1 1 -0 -0 -4 11 1
2 4 2 -3 -4 2 10 2 1 -2 -1 -5 -4 -3 -1 -2 -1 -2 -1 -7 -8 -6 -2 1 4 -3 4 1 2 1 0 -3 -2 -0 2 1 1 2 2 1 0 -0 -0
-0 -1 -3 1 5 16 -1 6 -3 -7 -4 -1 -1 0 -2 -6 -6 0 5 2 4 -5 -6 2 0 -1 1 2 0 -1 -1 0 -0 -1 0 1 -0 0 0 0 -0 1 1
-2 4 5 7 1 1 6 -4 -7 -4 1 4 -5 -2 2 -3 1 -2 8 -1 2 -13 -1 -7 -0 -3 2 1 1 1 -2 -2 -0 1 1 1 1 -1 -2 -2 -0 1 -1
7 4 2 4 3 -0 1 1 -2 -0 0 -1 -6 -3 2 -1 -0 -5 1 -4 -2 4 2 -4 -3 -2 -1 2 0 1 1 -1 -1 1 1 1 1 2 1 -0 -0 -0 0
4 2 5 4 -1 0 -3 -3 1 -2 4 3 -0 5 -0 -3 1 3 -3 -5 2 -3 4 -2 -5 -5 -0 0 0 -1 1 1 -2 -1 2 1 1 2 2 -1 0 3 3
Height
5905 5904 5903 5903 5902 5902 5902 5902 5902 5902 5902 5902 5902 5902 5903 5902 5902 5901 5900 5897 5896 5897 5898 5900 5903 5903 5903 5904 5905 5906 5907 5909 5910 5910 5909 5909 5911 5911 5913 5915 5916 5919 5921
5904 5903 5903 5902 5901 5901 5901 5902 5900 5900 5901 5901 5900 5900 5900 5899 5899 5898 5898 5899 5898 5897 5899 5898 5899 5897 5898 5900 5902 5902 5903 5905 5906 5906 5906 5905 5907 5908 5909 5911 5911 5913 5915
5904 5903 5903 5903 5901 5901 5901 5900 5899 5899 5900 5900 5900 5900 5899 5898 5897 5897 5896 5895 5894 5894 5895 5894 5893 5894 5895 5896 5897 5898 5898 5900 5901 5901 5900 5901 5903 5903 5903 5905 5906 5907 5909
5903 5903 5903 5903 5902 5901 5901 5900 5900 5899 5898 5898 5898 5898 5898 5898 5897 5895 5894 5892 5892 5890 5889 5889 5889 5891 5892 5892 5892 5892 5893 5893 5894 5895 5895 5894 5896 5897 5899 5899 5900 5900 5901
5901 5901 5901 5902 5902 5901 5901 5900 5899 5898 5897 5897 5897 5896 5895 5895 5895 5894 5892 5890 5888 5888 5888 5887 5886 5885 5886 5886 5887 5888 5888 5887 5887 5887 5888 5889 5889 5889 5890 5889 5890 5890 5893
5898 5897 5898 5898 5899 5899 5900 5899 5898 5896 5896 5896 5895 5894 5894 5892 5891 5891 5890 5886 5883 5883 5884 5883 5883 5883 5883 5882 5881 5880 5881 5881 5882 5881 5881 5880 5881 5882 5883 5883 5881 5880 5886
5895 5895 5895 5895 5894 5894 5896 5896 5896 5894 5893 5892 5892 5892 5891 5889 5888 5886 5885 5883 5882 5880 5879 5877 5876 5876 5876 5877 5876 5875 5874 5873 5874 5875 5875 5874 5874 5875 5874 5873 5873 5876 5878
5888 5891 5890 5890 5891 5890 5890 5891 5891 5891 5890 5889 5888 5888 5887 5885 5884 5882 5881 5879 5877 5876 5873 5871 5869 5868 5869 5870 5870 5870 5870 5869 5868 5867 5867 5867 5867 5869 5866 5866 5866 5869 5870
5882 5884 5885 5885 5885 5886 5886 5887 5887 5887 5886 5886 5884 5884 5882 5880 5879 5878 5877 5875 5873 5871 5869 5866 5863 5861 5862 5863 5863 5864 5864 5863 5862 5861 5860 5859 5859 5860 5862 5862 5861 5860 5862
5875 5877 5878 5878 5879 5880 5881 5881 5881 5881 5881 5880 5879 5878 5877 5876 5875 5874 5873 5871 5869 5867 5865 5861 5859 5857 5856 5856 5855 5855 5856 5858 5855 5855 5854 5853 5852 5853 5854 5856 5855 5855 5855
5868 5869 5871 5872 5872 5873 5874 5875 5874 5874 5874 5873 5873 5872 5870 5870 5869 5869 5868 5866 5864 5861 5859 5856 5854 5852 5850 5849 5848 5846 5846 5848 5847 5847 5846 5846 5846 5846 5847 5848 5848 5849 5849
5858 5861 5863 5864 5865 5865 5866 5867 5867 5867 5866 5865 5865 5865 5864 5863 5862 5861 5861 5860 5857 5856 5852 5849 5848 5846 5844 5841 5839 5838 5837 5836 5837 5836 5836 5837 5837 5838 5839 5840 5840 5841 5841
5848 5853 5854 5855 5857 5858 5858 5859 5859 5859 5858 5858 5858 5857 5856 5856 5854 5854 5853 5852 5850 5848 5846 5843 5840 5838 5836 5833 5830 5829 5828 5827 5826 5825 5825 5826 5828 5829 5829 5830 5831 5831 5831
5837 5835 5842 5845 5847 5847 5848 5850 5852 5851 5851 5850 5850 5850 5850 5848 5847 5845 5843 5842 5840 5839 5836 5833 5831 5829 5827 5824 5822 5820 5818 5816 5815 5815 5813 5814 5817 5818 5819 5820 5820 5821 5821
5826 5823 5831 5835 5839 5841 5841 5842 5844 5844 5843 5843 5843 5842 5842 5840 5839 5836 5834 5832 5831 5829 5827 5825 5823 5820 5817 5815 5813 5810 5808 5807 5804 5801 5800 5801 5803 5806 5807 5809 5810 5810 5810
5819 5813 5814 5814 5824 5831 5834 5836 5834 5834 5834 5834 5834 5833 5833 5831 5829 5828 5826 5824 5821 5819 5817 5816 5813 5811 5808 5805 5802 5800 5799 5797 5794 5792 5791 5789 5790 5793 5795 5797 5797 5798 5798
5812 5803 5801 5797 5811 5821 5825 5825 5826 5826 5826 5826 5825 5823 5822 5821 5819 5817 5815 5814 5812 5810 5807 5805 5802 5801 5798 5795 5792 5790 5788 5786 5785 5783 5782 5782 5782 5782 5782 5783 5784 5784 5785
5802 5803 5806 5806 5805 5813 5817 5817 5816 5815 5814 5814 5813 5811 5811 5810 5809 5808 5806 5804 5803 5801 5798 5795 5793 5791 5787 5785 5783 5781 5778 5778 5776 5776 5774 5774 5772 5772 5771 5768 5767 5768 5769
5796 5798 5799 5799 5802 5806 5809 5809 5806 5805 5804 5804 5803 5801 5800 5798 5797 5795 5793 5791 5788 5786 5784 5782 5780 5777 5775 5774 5773 5770 5768 5767 5766 5765 5764 5763 5762 5762 5761 5759 5756 5752 5751
5785 5788 5790 5793 5797 5798 5797 5796 5796 5794 5792 5791 5791 5790 5789 5788 5786 5783 5780 5778 5775 5772 5771 5768 5766 5765 5765 5764 5763 5761 5759 5757 5756 5755 5754 5752 5751 5751 5750 5748 5747 5746 5745
5773 5776 5780 5784 5785 5787 5786 5786 5785 5782 5781 5779 5779 5778 5777 5776 5774 5770 5766 5765 5764 5763 5761 5760 5758 5755 5754 5754 5753 5753 5751 5748 5746 5744 5742 5741 5740 5739 5739 5738 5737 5738 5736
5764 5768 5769 5772 5774 5776 5775 5774 5775 5774 5772 5771 5771 5769 5766 5763 5760 5759 5758 5755 5754 5752 5750 5749 5748 5746 5744 5743 5743 5741 5740 5739 5737 5735 5733 5731 5730 5729 5727 5727 5726 5725 5724
5754 5756 5759 5763 5765 5765 5766 5767 5765 5762 5761 5759 5758 5757 5755 5752 5751 5749 5746 5746 5743 5742 5741 5739 5737 5735 5733 5731 5730 5728 5727 5726 5724 5723 5721 5719 5718 5716 5715 5713 5712 5711 5710
5743 5749 5754 5756 5757 5758 5757 5756 5754 5753 5752 5752 5750 5747 5746 5743 5741 5738 5739 5737 5735 5733 5730 5727 5726 5724 5721 5719 5717 5715 5714 5712 5710 5708 5707 5705 5703 5702 5700 5698 5697 5696 5695
5741 5745 5746 5746 5746 5746 5746 5746 5743 5743 5743 5741 5738 5736 5735 5733 5731 5730 5729 5726 5724 5721 5719 5717 5714 5711 5708 5706 5703 5701 5699 5697 5695 5693 5691 5688 5686 5684 5683 5682 5681 5680 5679
5734 5735 5736 5736 5734 5734 5732 5732 5733 5731 5729 5729 5727 5725 5724 5723 5720 5719 5717 5714 5711 5707 5706 5705 5702 5698 5695 5692 5689 5686 5684 5682 5679 5676 5674 5672 5669 5667 5665 5663 5663 5662 5660